Find Starlink 31284

NORAD ID: 59246 Int'l Des: 2024-049 Owner: SPXS Country: US Constellation: starlink operational
LEOCIRCULAR

Live-Position

3D-Globus wird geladen...

Über Starlink 31284

Beschreibung wird geladen...

Nächste Überflüge

Passes for default location (London). Set your location on the main map for personalized predictions.

Höhenverlauf

Loading altitude history...

Zweizeiliger Elementsatz

1 59246U 24049R 26132.74221060 .00000416 00000-0 24648-4 0 9990
2 59246 43.0036 141.6690 0001238 276.2708 83.8003 15.27578514122199
Epoch: 12. Mai 2026 • Age: 9 hours

Aktueller Status

Höhe 492.3 km
Geschwindigkeit 7.62 km/s
Subsatellitenpunkt -34.74°S, 96.06°E
Startdatum 16. März 2024
Alter 2.1 years
Typ internet

Technische Details

Klassifizierung Payload
Masse 730.00 kg
Trockenmasse 700.00 kg
Gesamtmasse 730.00 kg
Länge 0.30 m
Durchmesser 4.10 m
Spannweite 29.00 m
Form Box + pan
Hersteller SPXS
Bus-Typ Starlink V2M
Phasenstatus In Orbit
Besitzer/Staat SPXS/US

Most Searched